Location: Newark
(42.8481°N, 0.4872°E)
Time: 07:18:16
(UTC+00:00)

Vanguard 3 - Pass Details

Date: 05 November 2020
Orbit: 508 x 3262 km, 33.3° (Epoch: 28 November)

Event Time Altitude Azimuth Distance (km) Brightness Sun altitude
Rises 07:59:54 0° 275° (W) 6,581 11.3 12.4°
Reaches altitude 10° 08:04:07 10° 271° (W) 5,807 11.1 13.0°
Maximum altitude 08:21:52 49° 205° (SSW) 3,856 10.9 15.5°
Drops below altitude 10° 08:38:52 10° 137° (SE) 5,561 14.0 17.9°
Sets 08:42:50 0° 132° (SE) 6,293 13.4 18.4°
